Lid_Strength_Index
1 -0 -2 -1 -2 -2 -1 -2 -2 -2 -2 -2 -2 -1 -2 -2 -2 -2 -2 -2 -2 -2 -2 -2 -2 -2 -2 -2 -2 -2 -2 -2 -2 -2 -2 -2 -2 -2 -2 -2 -2 -1 -2
-0 -0 -2 -2 -1 -2 -2 -2 -2 -2 -1 -2 -2 -2 -2 -2 -2 -2 -2 -2 -2 -2 -2 -2 -2 -2 -2 -2 -2 -2 -2 -2 -2 -1 -2 -2 -2 -2 -2 -2 -2 -1 -2
0 -0 -1 -2 -2 -2 -2 -2 -2 -2 -2 -2 -2 -2 -2 -2 -2 -2 -2 -3 -2 -2 -2 -2 -2 -2 -2 -2 -2 -2 -2 -2 -2 -2 -2 -1 -1 -2 -2 -2 -2 -2 -2
-0 -0 -0 -2 -2 -2 -2 -2 -2 -2 -2 -2 -2 -2 -2 -2 -2 -2 -2 -3 -2 -2 -2 -2 -2 -2 -2 -2 -2 -2 -2 -2 -2 -2 -1 -1 -1 -3 -3 -2 -2 -2 -1
0 -0 -0 -2 -2 -2 -2 -2 -2 -2 -2 -2 -2 -2 -2 -2 -2 -2 -3 -3 -2 -2 -2 -2 -3 -2 -2 -2 -2 -2 -2 -2 -2 -1 0 -0 -1 -2 -2 -3 -2 -2 -2
0 0 -1 -2 -2 -2 -2 -2 -2 -2 -2 -2 -2 -2 -2 -2 -2 -2 -3 -3 -2 -2 -2 -2 -2 -2 -2 -2 -2 -2 -2 -2 -1 0 -0 -1 -1 -2 -3 -2 -2 -2 -2
1 1 -0 -2 -2 -2 -2 -2 -2 -2 -2 -2 -2 -2 -2 -2 -2 -2 -3 -3 -2 -2 -2 -2 -2 -2 -2 -2 -2 -2 -2 -1 2 1 1 -0 -1 -3 -3 -3 -2 -2 -2
1 0 -0 -2 -2 -2 -2 -2 -2 -2 -2 -2 -2 -2 -2 -3 -3 -3 -3 -3 -2 -2 -2 -2 -2 -2 -2 -2 -2 -2 -1 0 1 1 1 1 -1 -1 -2 -2 -2 -2 -2
1 0 1 0 -1 -2 -2 -2 -2 -2 -2 -2 -2 -2 -3 -3 -3 -2 -3 -3 -2 -2 -2 -2 -2 -2 -2 -2 -1 -1 -0 -0 3 2 1 1 -1 -1 -1 -1 -0 -1 -1
2 2 2 2 1 1 1 -2 -2 -2 -2 -2 -2 -2 -3 -3 -3 -3 -3 -3 -3 -2 -2 -2 -2 -2 -2 -1 -1 0 0 1 3 3 2 2 -0 -0 0 0 0 0 -0
3 4 4 2 2 2 1 -0 -2 -2 -2 -2 -1 -1 2 3 2 0 -2 -3 -3 -3 -2 -2 -2 -2 -1 -0 0 1 2 4 3 3 3 0 0 0 0 1 1 1 0
4 5 4 3 3 3 2 1 1 0 1 2 6 6 6 4 2 1 -1 -2 -2 -2 -1 -1 -1 -0 1 4 3 2 4 4 4 3 2 0 1 0 1 1 1 1 -0
4 4 5 4 4 4 4 4 3 2 2 3 6 7 6 5 5 5 5 5 5 2 5 4 5 5 5 6 6 5 5 4 4 4 1 0 1 1 1 1 1 1 0
5 4 6 5 5 5 4 5 4 4 4 4 6 6 6 5 5 6 6 6 5 5 5 5 5 5 6 6 6 5 5 5 5 5 2 1 1 1 1 2 2 2 2
6 5 6 6 6 6 5 6 6 5 5 5 5 4 5 5 6 6 6 5 5 5 5 6 6 6 7 6 6 6 6 5 5 5 5 1 2 2 2 2 2 1 2
6 6 6 6 6 6 6 7 6 6 6 5 5 5 5 5 6 5 5 5 5 5 5 6 6 7 8 7 6 6 6 6 6 5 6 5 3 4 4 3 2 1 2
6 6 6 6 6 7 6 6 6 7 6 6 5 5 5 5 5 5 5 5 5 5 5 6 6 8 8 8 8 7 6 7 7 8 8 8 7 4 4 4 4 3 3
5 5 5 4 6 6 6 6 6 7 6 6 5 4 4 4 4 5 5 5 5 5 5 6 7 9 10 10 10 10 9 8 9 9 10 9 8 8 6 5 4 4 4
5 6 6 5 6 5 6 5 5 5 5 5 5 5 4 4 4 4 4 5 5 6 7 8 9 9 11 11 10 11 11 11 11 11 11 10 10 10 8 5 5 5 5
5 5 5 6 6 6 6 6 6 6 5 5 5 4 4 3 3 4 4 4 5 7 8 10 11 10 11 12 11 12 12 12 12 12 12 11 11 11 9 8 8 7 6
6 6 6 7 7 6 7 7 7 6 6 5 5 4 3 3 4 4 4 6 6 7 8 9 11 12 11 12 12 12 12 13 13 13 12 12 12 11 11 9 9 9 9
7 7 6 6 7 6 5 7 7 7 7 6 5 5 4 4 4 4 5 6 7 8 8 9 9 11 13 13 13 13 14 13 13 13 13 12 13 12 11 10 9 9 10
7 7 6 6 7 6 5 6 7 6 7 7 7 6 5 4 4 5 5 7 8 9 10 11 10 11 13 14 14 13 16 16 15 14 14 13 13 13 12 11 10 10 10
7 7 6 6 6 6 6 6 6 6 8 7 7 6 6 5 5 5 6 7 9 10 11 11 11 12 12 14 13 13 14 14 16 16 14 14 13 13 14 13 11 11 12
7 7 7 6 6 6 6 6 7 6 7 7 7 7 6 6 5 5 7 8 9 10 11 12 12 12 12 13 13 14 15 15 15 16 17 15 14 14 14 14 14 13 13
8 7 6 6 6 6 6 6 7 7 7 7 7 7 6 6 6 6 7 8 10 11 11 12 12 12 13 13 13 13 14 15 15 16 16 16 16 15 14 14 14 14 13